Cotulla, TX

6:43 PM CST on February 19, 2018 (GMT -0600)
Cotulla-La Salle County

Weather History for KCOT - May, 2013

Change the Weather History Date:

Sunday, May 19, 2013

  Actual Average Record
Temperature  
Mean Temperature 86 °F -  
Max Temperature 100 °F 90 °F 105 °F (2003)
Min Temperature 73 °F 67 °F 60 °F (2002)
Cooling Degree Days 22    
Growing Degree Days 36 (Base 50)    
Moisture  
Dew Point 70 °F    
Average Humidity 62    
Maximum Humidity 88    
Minimum Humidity 33    
Precipitation  
Precipitation 0.00 in - - ()
Sea Level Pressure  
Sea Level Pressure 29.74 in    
Wind  
Wind Speed 11 mph (SE)    
Max Wind Speed 21 mph    
Max Gust Speed 28 mph    
Visibility 8 miles    
Events      
Averages and records for this station are not official NWS values.
T = Trace of Precipitation, MM = Missing Value Source: NWS Daily Summary

Daily Weather History Graph

Daily Weather History Graph

Search for Another Location

Airport or City:

Trip Planner

Search our weather history database for the weather conditions in past years. The results will help you decide how hot, cold, wet, or windy it might be!

Date:

Astronomy

May. 19, 2013 Rise Set
Actual Time 6:44 AM CDT 8:22 PM CDT
Civil Twilight 6:18 AM CDT 8:48 PM CDT
Nautical Twilight 5:47 AM CDT 9:20 PM CDT
Astronomical Twilight 5:14 AM CDT 9:52 PM CDT
Moon 2:55 PM CDT (5/19) 2:38 AM CDT (5/19)
Length of Visible Light 14h 30m
Length of Day
13h 38m
Waxing Gibbous, 65% of the Moon is Illuminated
May 19
Waxing Gibbous
May 24
Full
May 31
Last Quarter
Jun 8
New
Jun 16
First Quarter

Hourly Weather History & Observations

Time (CDT) Temp. Heat Index Dew Point Humidity Pressure Visibility Wind Dir Wind Speed Gust Speed Precip Events Conditions
12:53 AM 82.0 °F 84.5 °F 66.9 °F 60% 29.78 in 10.0 mi SE 12.7 mph 19.6 mph N/A   Clear
1:53 AM 80.1 °F 82.9 °F 69.1 °F 69% 29.78 in 10.0 mi SE 12.7 mph - N/A   Clear
2:53 AM 77.0 °F - 70.0 °F 79% 29.76 in 10.0 mi SE 11.5 mph - N/A   Clear
3:53 AM 75.9 °F - 70.0 °F 82% 29.75 in 10.0 mi SE 11.5 mph - N/A   Clear
4:53 AM 75.0 °F - 70.0 °F 84% 29.75 in 9.0 mi SE 10.4 mph - N/A   Clear
5:53 AM 73.9 °F - 70.0 °F 87% 29.76 in 8.0 mi ESE 6.9 mph - N/A   Clear
6:53 AM 73.4 °F - 69.8 °F 88% 29.79 in 6.0 mi ESE 6.9 mph - N/A   Clear
7:16 AM 73.4 °F - 69.8 °F 88% 29.80 in 6.0 mi East 4.6 mph - N/A   Mostly Cloudy
7:53 AM 75.0 °F - 70.0 °F 84% 29.79 in 6.0 mi ESE 4.6 mph - N/A   Haze
8:48 AM 78.8 °F - 71.6 °F 78% 29.82 in 7.0 mi ESE 11.5 mph - N/A   Mostly Cloudy
8:53 AM 78.1 °F - 71.1 °F 79% 29.79 in 7.0 mi ESE 15.0 mph - N/A   Mostly Cloudy
9:35 AM 80.6 °F 83.9 °F 69.8 °F 70% 29.81 in 8.0 mi SE 11.5 mph 21.9 mph N/A   Scattered Clouds
9:53 AM 82.0 °F 85.9 °F 70.0 °F 67% 29.78 in 8.0 mi SSE 12.7 mph 21.9 mph N/A   Scattered Clouds
10:53 AM 87.1 °F 92.8 °F 71.1 °F 59% 29.78 in 8.0 mi SSE 12.7 mph 26.5 mph N/A   Partly Cloudy
11:53 AM 90.0 °F 95.4 °F 70.0 °F 52% 29.77 in 8.0 mi South 8.1 mph 20.7 mph N/A   Partly Cloudy
12:53 PM 93.9 °F 100.3 °F 70.0 °F 46% 29.75 in 8.0 mi SSE 8.1 mph 18.4 mph N/A   Partly Cloudy
1:53 PM 96.8 °F 103.1 °F 69.8 °F 41% 29.75 in 8.0 mi South 10.4 mph 17.3 mph N/A   Scattered Clouds
2:53 PM 96.8 °F 101.8 °F 68.0 °F 39% 29.72 in 8.0 mi South 10.4 mph 16.1 mph N/A   Clear
3:53 PM 99.0 °F 103.5 °F 66.9 °F 35% 29.68 in 8.0 mi SE 10.4 mph 17.3 mph N/A   Clear
4:53 PM 100.9 °F 106.0 °F 66.9 °F 33% 29.65 in 8.0 mi SE 11.5 mph 26.5 mph N/A   Partly Cloudy
5:53 PM 100.0 °F 104.9 °F 66.9 °F 34% 29.63 in 7.0 mi ESE 13.8 mph 17.3 mph N/A   Partly Cloudy
6:53 PM 97.0 °F 102.8 °F 69.1 °F 40% 29.64 in 6.0 mi SE 17.3 mph 23.0 mph N/A   Haze
7:53 PM 93.9 °F 99.1 °F 69.1 °F 44% 29.65 in 5.0 mi SE 20.7 mph 27.6 mph N/A   Haze
8:53 PM 91.0 °F 96.6 °F 70.0 °F 50% 29.67 in 7.0 mi SE 13.8 mph 20.7 mph N/A   Clear
9:53 PM 89.1 °F 93.7 °F 69.1 °F 52% 29.70 in 8.0 mi SE 12.7 mph 23.0 mph N/A   Clear
10:53 PM 84.2 °F 89.6 °F 71.6 °F 66% 29.76 in 10.0 mi ESE 15.0 mph - N/A   Clear
11:53 PM 81.0 °F 85.2 °F 72.0 °F 74% 29.75 in 10.0 mi ESE 13.8 mph - N/A   Clear